Year,Month,Day,Hour,Minute,Value (Times are PST for temperature in C)
2018,11,27,00,00,9.90
2018,11,27,00,01,9.90
2018,11,27,00,02,9.90
2018,11,27,00,03,9.90
2018,11,27,00,04,9.90
2018,11,27,00,05,9.90
2018,11,27,00,06,9.90
2018,11,27,00,07,9.80
2018,11,27,00,08,9.90
2018,11,27,00,09,9.80
2018,11,27,00,10,9.80
2018,11,27,00,11,9.80
2018,11,27,00,12,9.80
2018,11,27,00,13,9.90
2018,11,27,00,14,9.90
2018,11,27,00,15,9.90
2018,11,27,00,16,9.90
2018,11,27,00,17,9.90
2018,11,27,00,18,9.90
2018,11,27,00,19,9.90
2018,11,27,00,20,9.90
2018,11,27,00,21,9.90
2018,11,27,00,22,9.80
2018,11,27,00,23,9.80
2018,11,27,00,24,9.80
2018,11,27,00,25,9.80
2018,11,27,00,26,9.80
2018,11,27,00,27,9.80
2018,11,27,00,28,9.80
2018,11,27,00,29,9.80
2018,11,27,00,30,9.80
2018,11,27,00,31,9.80
2018,11,27,00,32,9.80
2018,11,27,00,33,9.80
2018,11,27,00,34,9.80
2018,11,27,00,35,9.90
2018,11,27,00,36,9.90
2018,11,27,00,37,9.90
2018,11,27,00,38,9.90
2018,11,27,00,39,9.90
2018,11,27,00,40,9.90
2018,11,27,00,41,9.90
2018,11,27,00,42,9.90
2018,11,27,00,43,9.90
2018,11,27,00,44,9.90
2018,11,27,00,45,9.90
2018,11,27,00,46,9.90
2018,11,27,00,47,9.90
2018,11,27,00,48,9.90
2018,11,27,00,49,9.90
2018,11,27,00,50,9.90
2018,11,27,00,51,9.90
2018,11,27,00,52,9.90
2018,11,27,00,53,9.90
2018,11,27,00,54,9.90
2018,11,27,00,55,9.90
2018,11,27,00,56,9.90
2018,11,27,00,57,9.90
2018,11,27,00,58,9.90
2018,11,27,00,59,9.90
2018,11,27,01,00,9.90
2018,11,27,01,01,9.90
2018,11,27,01,02,9.90
2018,11,27,01,03,9.90
2018,11,27,01,04,9.90
2018,11,27,01,05,9.90
2018,11,27,01,06,9.90
2018,11,27,01,07,9.90
2018,11,27,01,08,9.90
2018,11,27,01,09,9.90
2018,11,27,01,10,9.90
2018,11,27,01,11,9.90
2018,11,27,01,12,9.90
2018,11,27,01,13,10.00
2018,11,27,01,14,10.00
2018,11,27,01,15,10.00
2018,11,27,01,16,10.00
2018,11,27,01,17,10.10
2018,11,27,01,18,10.10
2018,11,27,01,19,10.20
2018,11,27,01,20,10.20
2018,11,27,01,21,10.20
2018,11,27,01,22,10.20
2018,11,27,01,23,10.20
2018,11,27,01,24,10.30
2018,11,27,01,25,10.30
2018,11,27,01,26,10.30
2018,11,27,01,27,10.30
2018,11,27,01,28,10.40
2018,11,27,01,29,10.40
2018,11,27,01,30,10.40
2018,11,27,01,31,10.40
2018,11,27,01,32,10.40
2018,11,27,01,33,10.40
2018,11,27,01,34,10.40
2018,11,27,01,35,10.40
2018,11,27,01,36,10.40
2018,11,27,01,37,10.40
2018,11,27,01,38,10.40
2018,11,27,01,39,10.40
2018,11,27,01,40,10.40
2018,11,27,01,41,10.40
2018,11,27,01,42,10.40
2018,11,27,01,43,10.40
2018,11,27,01,44,10.40
2018,11,27,01,45,10.40
2018,11,27,01,46,10.40
2018,11,27,01,47,10.40
2018,11,27,01,48,10.40
2018,11,27,01,49,10.40
2018,11,27,01,50,10.40
2018,11,27,01,51,10.40
2018,11,27,01,52,10.40
2018,11,27,01,53,10.40
2018,11,27,01,54,10.40
2018,11,27,01,55,10.40
2018,11,27,01,56,10.40
2018,11,27,01,57,10.40
2018,11,27,01,58,10.40
2018,11,27,01,59,10.40
2018,11,27,02,00,10.40
2018,11,27,02,01,10.50
2018,11,27,02,02,10.50
2018,11,27,02,03,10.50
2018,11,27,02,04,10.50
2018,11,27,02,05,10.50
2018,11,27,02,06,10.50
2018,11,27,02,07,10.50
2018,11,27,02,08,10.50
2018,11,27,02,09,10.50
2018,11,27,02,10,10.50
2018,11,27,02,11,10.50
2018,11,27,02,12,10.50
2018,11,27,02,13,10.50
2018,11,27,02,14,10.50
2018,11,27,02,15,10.50
2018,11,27,02,16,10.50
2018,11,27,02,17,10.50
2018,11,27,02,18,10.50
2018,11,27,02,19,10.50
2018,11,27,02,20,10.50
2018,11,27,02,21,10.50
2018,11,27,02,22,10.50
2018,11,27,02,23,10.50
2018,11,27,02,24,10.50
2018,11,27,02,25,10.50
2018,11,27,02,26,10.50
2018,11,27,02,27,10.40
2018,11,27,02,28,10.40
2018,11,27,02,29,10.50
2018,11,27,02,30,10.40
2018,11,27,02,31,10.40
2018,11,27,02,32,10.40
2018,11,27,02,33,10.40
2018,11,27,02,34,10.40
2018,11,27,02,35,10.40
2018,11,27,02,36,10.40
2018,11,27,02,37,10.40
2018,11,27,02,38,10.40
2018,11,27,02,39,10.40
2018,11,27,02,40,10.40
2018,11,27,02,41,10.40
2018,11,27,02,42,10.40
2018,11,27,02,43,10.40
2018,11,27,02,44,10.40
2018,11,27,02,45,10.40
2018,11,27,02,46,10.40
2018,11,27,02,47,10.50
2018,11,27,02,48,10.50
2018,11,27,02,49,10.50
2018,11,27,02,50,10.60
2018,11,27,02,51,10.60
2018,11,27,02,52,10.60
2018,11,27,02,53,10.60
2018,11,27,02,54,10.60
2018,11,27,02,55,10.60
2018,11,27,02,56,10.60
2018,11,27,02,57,10.60
2018,11,27,02,58,10.50
2018,11,27,02,59,10.50
2018,11,27,03,00,10.50
2018,11,27,03,01,10.50
2018,11,27,03,02,10.50
2018,11,27,03,03,10.60
2018,11,27,03,04,10.60
2018,11,27,03,05,10.60
2018,11,27,03,06,10.60
2018,11,27,03,07,10.60
2018,11,27,03,08,10.50
2018,11,27,03,09,10.60
2018,11,27,03,10,10.60
2018,11,27,03,11,10.60
2018,11,27,03,12,10.60
2018,11,27,03,13,10.60
2018,11,27,03,14,10.60
2018,11,27,03,15,10.60
2018,11,27,03,16,10.60
2018,11,27,03,17,10.60
2018,11,27,03,18,10.60
2018,11,27,03,19,10.60
2018,11,27,03,20,10.60
2018,11,27,03,21,10.60
2018,11,27,03,22,10.60
2018,11,27,03,23,10.60
2018,11,27,03,24,10.60
2018,11,27,03,25,10.60
2018,11,27,03,26,10.60
2018,11,27,03,27,10.60
2018,11,27,03,28,10.60
2018,11,27,03,29,10.60
2018,11,27,03,30,10.60
2018,11,27,03,31,10.60
2018,11,27,03,32,10.60
2018,11,27,03,33,10.60
2018,11,27,03,34,10.70
2018,11,27,03,35,10.70
2018,11,27,03,36,10.70
2018,11,27,03,37,10.70
2018,11,27,03,38,10.70
2018,11,27,03,39,10.70
2018,11,27,03,40,10.70
2018,11,27,03,41,10.60
2018,11,27,03,42,10.60
2018,11,27,03,43,10.70
2018,11,27,03,44,10.60
2018,11,27,03,45,10.60
2018,11,27,03,46,10.60
2018,11,27,03,47,10.60
2018,11,27,03,48,10.70
2018,11,27,03,49,10.70
2018,11,27,03,50,10.80
2018,11,27,03,51,10.80
2018,11,27,03,52,10.90
2018,11,27,03,53,10.90
2018,11,27,03,54,10.90
2018,11,27,03,55,10.90
2018,11,27,03,56,11.00
2018,11,27,03,57,11.10
2018,11,27,03,58,11.10
2018,11,27,03,59,11.10
2018,11,27,04,00,11.10
2018,11,27,04,01,11.10
2018,11,27,04,02,11.10
2018,11,27,04,03,11.10
2018,11,27,04,04,11.20
2018,11,27,04,05,11.20
2018,11,27,04,06,11.30
2018,11,27,04,07,11.30
2018,11,27,04,08,11.30
2018,11,27,04,09,11.30
2018,11,27,04,10,11.30
2018,11,27,04,11,11.30
2018,11,27,04,12,11.30
2018,11,27,04,13,11.30
2018,11,27,04,14,11.30
2018,11,27,04,15,11.30
2018,11,27,04,16,11.30
2018,11,27,04,17,11.30
2018,11,27,04,18,11.40
2018,11,27,04,19,11.40
2018,11,27,04,20,11.50
2018,11,27,04,21,11.50
2018,11,27,04,22,11.50
2018,11,27,04,23,11.50
2018,11,27,04,24,11.60
2018,11,27,04,25,11.60
2018,11,27,04,26,11.60
2018,11,27,04,27,11.60
2018,11,27,04,28,11.60
2018,11,27,04,29,11.60
2018,11,27,04,30,11.60
2018,11,27,04,31,11.60
2018,11,27,04,32,11.60
2018,11,27,04,33,11.60
2018,11,27,04,34,11.60
2018,11,27,04,35,11.60
2018,11,27,04,36,11.60
2018,11,27,04,37,11.60
2018,11,27,04,38,11.60
2018,11,27,04,39,11.60
2018,11,27,04,40,11.60
2018,11,27,04,41,11.60
2018,11,27,04,42,11.60
2018,11,27,04,43,11.60
2018,11,27,04,44,11.60
2018,11,27,04,45,11.60
2018,11,27,04,46,11.60
2018,11,27,04,47,11.60
2018,11,27,04,48,11.60
2018,11,27,04,49,11.60
2018,11,27,04,50,11.60
2018,11,27,04,51,11.60
2018,11,27,04,52,11.60
2018,11,27,04,53,11.60
2018,11,27,04,54,11.60
2018,11,27,04,55,11.60
2018,11,27,04,56,11.60
2018,11,27,04,57,11.60
2018,11,27,04,58,11.50
2018,11,27,04,59,11.50
2018,11,27,05,00,11.50
2018,11,27,05,01,11.50
2018,11,27,05,02,11.50
2018,11,27,05,03,11.50
2018,11,27,05,04,11.50
2018,11,27,05,05,11.50
2018,11,27,05,06,11.40
2018,11,27,05,07,11.40
2018,11,27,05,08,11.40
2018,11,27,05,09,11.40
2018,11,27,05,10,11.40
2018,11,27,05,11,11.40
2018,11,27,05,12,11.40
2018,11,27,05,13,11.40
2018,11,27,05,14,11.50
2018,11,27,05,15,11.50
2018,11,27,05,16,11.50
2018,11,27,05,17,11.40
2018,11,27,05,18,11.40
2018,11,27,05,19,11.40
2018,11,27,05,20,11.40
2018,11,27,05,21,11.40
2018,11,27,05,22,11.40
2018,11,27,05,23,11.40
2018,11,27,05,24,11.30
2018,11,27,05,25,11.30
2018,11,27,05,26,11.30
2018,11,27,05,27,11.30
2018,11,27,05,28,11.30
2018,11,27,05,29,11.30
2018,11,27,05,30,11.30
2018,11,27,05,31,11.30
2018,11,27,05,32,11.30
2018,11,27,05,33,11.30
2018,11,27,05,34,11.30
2018,11,27,05,35,11.20
2018,11,27,05,36,11.30
2018,11,27,05,37,11.30
2018,11,27,05,38,11.30
2018,11,27,05,39,11.30
2018,11,27,05,40,11.40
2018,11,27,05,41,11.40
2018,11,27,05,42,11.50
2018,11,27,05,43,11.40
2018,11,27,05,44,11.50
2018,11,27,05,45,11.50
2018,11,27,05,46,11.50
2018,11,27,05,47,11.60
2018,11,27,05,48,11.60
2018,11,27,05,49,11.60
2018,11,27,05,50,11.60
2018,11,27,05,51,11.70
2018,11,27,05,52,11.70
2018,11,27,05,53,11.70
2018,11,27,05,54,11.70
2018,11,27,05,55,11.70
2018,11,27,05,56,11.70
2018,11,27,05,57,11.70
2018,11,27,05,58,11.80
2018,11,27,05,59,11.80
2018,11,27,06,00,11.80
2018,11,27,06,01,11.80
2018,11,27,06,02,11.80
2018,11,27,06,03,11.90
2018,11,27,06,04,11.90
2018,11,27,06,05,11.90
2018,11,27,06,06,11.90
2018,11,27,06,07,11.90
2018,11,27,06,08,11.90
2018,11,27,06,09,11.90
2018,11,27,06,10,11.90
2018,11,27,06,11,11.90
2018,11,27,06,12,11.90
2018,11,27,06,13,11.90
2018,11,27,06,14,11.90
2018,11,27,06,15,11.90
2018,11,27,06,16,11.90
2018,11,27,06,17,11.90
2018,11,27,06,18,11.90
2018,11,27,06,19,11.90
2018,11,27,06,20,11.90
2018,11,27,06,21,11.90
2018,11,27,06,22,11.90
2018,11,27,06,23,11.90
2018,11,27,06,24,12.00
2018,11,27,06,25,12.00
2018,11,27,06,26,11.90
2018,11,27,06,27,12.00
2018,11,27,06,28,12.00
2018,11,27,06,29,12.00
2018,11,27,06,30,12.00
2018,11,27,06,31,12.10
2018,11,27,06,32,12.10
2018,11,27,06,33,12.10
2018,11,27,06,34,12.10
2018,11,27,06,35,12.10
2018,11,27,06,36,12.20
2018,11,27,06,37,12.20
2018,11,27,06,38,12.20
2018,11,27,06,39,12.20
2018,11,27,06,40,12.20
2018,11,27,06,41,12.20
2018,11,27,06,42,12.20
2018,11,27,06,43,12.20
2018,11,27,06,44,12.30
2018,11,27,06,45,12.30
2018,11,27,06,46,12.40
2018,11,27,06,47,12.40
2018,11,27,06,48,12.40
2018,11,27,06,49,12.40
2018,11,27,06,50,12.40
2018,11,27,06,51,12.40
2018,11,27,06,52,12.40
2018,11,27,06,53,12.40
2018,11,27,06,54,12.40
2018,11,27,06,55,12.40
2018,11,27,06,56,12.40
2018,11,27,06,57,12.40
2018,11,27,06,58,12.40
2018,11,27,06,59,12.50
2018,11,27,07,00,12.50
2018,11,27,07,01,12.50
2018,11,27,07,02,12.50
2018,11,27,07,03,12.50
2018,11,27,07,04,12.50
2018,11,27,07,05,12.60
2018,11,27,07,06,12.60
2018,11,27,07,07,12.60
2018,11,27,07,08,12.60
2018,11,27,07,09,12.60
2018,11,27,07,10,12.60
2018,11,27,07,11,12.60
2018,11,27,07,12,12.60
2018,11,27,07,13,12.60
2018,11,27,07,14,12.60
2018,11,27,07,15,12.60
2018,11,27,07,16,12.60
2018,11,27,07,17,12.60
2018,11,27,07,18,12.70
2018,11,27,07,19,12.70
2018,11,27,07,20,12.70
2018,11,27,07,21,12.70
2018,11,27,07,22,12.70
2018,11,27,07,23,12.70
2018,11,27,07,24,12.60
2018,11,27,07,25,12.60
2018,11,27,07,26,12.60
2018,11,27,07,27,12.60
2018,11,27,07,28,12.60
2018,11,27,07,29,12.60
2018,11,27,07,30,12.60
2018,11,27,07,31,12.60
2018,11,27,07,32,12.60
2018,11,27,07,33,12.60
2018,11,27,07,34,12.60
2018,11,27,07,35,12.60
2018,11,27,07,36,12.60
2018,11,27,07,37,12.60
2018,11,27,07,38,12.70
2018,11,27,07,39,12.70
2018,11,27,07,40,12.70
2018,11,27,07,41,12.70
2018,11,27,07,42,12.80
2018,11,27,07,43,12.80
2018,11,27,07,44,12.70
2018,11,27,07,45,12.70
2018,11,27,07,46,12.70
2018,11,27,07,47,12.60
2018,11,27,07,48,12.60
2018,11,27,07,49,12.70
2018,11,27,07,50,12.70
2018,11,27,07,51,12.70
2018,11,27,07,52,12.70
2018,11,27,07,53,12.70
2018,11,27,07,54,12.70
2018,11,27,07,55,12.70
2018,11,27,07,56,12.60
2018,11,27,07,57,12.60
2018,11,27,07,58,12.60
2018,11,27,07,59,12.50
2018,11,27,08,00,12.50
2018,11,27,08,01,12.40
2018,11,27,08,02,12.40
2018,11,27,08,03,12.40
2018,11,27,08,04,12.30
2018,11,27,08,05,12.30
2018,11,27,08,06,12.20
2018,11,27,08,07,12.20
2018,11,27,08,08,12.10
2018,11,27,08,09,12.10
2018,11,27,08,10,12.00
2018,11,27,08,11,12.00
2018,11,27,08,12,12.00
2018,11,27,08,13,11.90
2018,11,27,08,14,11.90
2018,11,27,08,15,11.90
2018,11,27,08,16,11.90
2018,11,27,08,17,11.80
2018,11,27,08,18,11.80
2018,11,27,08,19,11.80
2018,11,27,08,20,11.80
2018,11,27,08,21,11.80
2018,11,27,08,22,11.80
2018,11,27,08,23,11.80
2018,11,27,08,24,11.80
2018,11,27,08,25,11.80
2018,11,27,08,26,11.70
2018,11,27,08,27,11.70
2018,11,27,08,28,11.70
2018,11,27,08,29,11.60
2018,11,27,08,30,11.60
2018,11,27,08,31,11.60
2018,11,27,08,32,11.60
2018,11,27,08,33,11.50
2018,11,27,08,34,11.50
2018,11,27,08,35,11.40
2018,11,27,08,36,11.40
2018,11,27,08,37,11.40
2018,11,27,08,38,11.30
2018,11,27,08,39,11.30
2018,11,27,08,40,11.30
2018,11,27,08,41,11.30
2018,11,27,08,42,11.30
2018,11,27,08,43,11.30
2018,11,27,08,44,11.30
2018,11,27,08,45,11.30
2018,11,27,08,46,11.30
2018,11,27,08,47,11.30
2018,11,27,08,48,11.30
2018,11,27,08,49,11.30
2018,11,27,08,50,11.40
2018,11,27,08,51,11.40
2018,11,27,08,52,11.40
2018,11,27,08,53,11.40
2018,11,27,08,54,11.50
2018,11,27,08,55,11.50
2018,11,27,08,56,11.50
2018,11,27,08,57,11.60
2018,11,27,08,58,11.60
2018,11,27,08,59,11.70
2018,11,27,09,00,11.70
2018,11,27,09,01,11.80
2018,11,27,09,02,11.80
2018,11,27,09,03,11.90
2018,11,27,09,04,11.90
2018,11,27,09,05,12.00
2018,11,27,09,06,12.00
2018,11,27,09,07,12.10
2018,11,27,09,08,12.10
2018,11,27,09,09,12.20
2018,11,27,09,10,12.20
2018,11,27,09,11,12.20
2018,11,27,09,12,12.30
2018,11,27,09,13,12.30
2018,11,27,09,14,12.30
2018,11,27,09,15,12.40
2018,11,27,09,16,12.40
2018,11,27,09,17,12.40
2018,11,27,09,18,12.40
2018,11,27,09,19,12.50
2018,11,27,09,20,12.50
2018,11,27,09,21,12.60
2018,11,27,09,22,12.60
2018,11,27,09,23,12.60
2018,11,27,09,24,12.70
2018,11,27,09,25,12.70
2018,11,27,09,26,12.70
2018,11,27,09,27,12.80
2018,11,27,09,28,12.80
2018,11,27,09,29,12.90
2018,11,27,09,30,12.90
2018,11,27,09,31,12.90
2018,11,27,09,32,13.00
2018,11,27,09,33,13.00
2018,11,27,09,34,13.00
2018,11,27,09,35,13.10
2018,11,27,09,36,13.10
2018,11,27,09,37,13.10
2018,11,27,09,38,13.20
2018,11,27,09,39,13.20
2018,11,27,09,40,13.20
2018,11,27,09,41,13.20
2018,11,27,09,42,13.30
2018,11,27,09,43,13.30
2018,11,27,09,44,13.30
2018,11,27,09,45,13.40
2018,11,27,09,46,13.40
2018,11,27,09,47,13.50
2018,11,27,09,48,13.50
2018,11,27,09,49,13.60
2018,11,27,09,50,13.60
2018,11,27,09,51,13.60
2018,11,27,09,52,13.70
2018,11,27,09,53,13.70
2018,11,27,09,54,13.70
2018,11,27,09,55,13.80
2018,11,27,09,56,13.80
2018,11,27,09,57,13.80
2018,11,27,09,58,13.80
2018,11,27,09,59,13.80
2018,11,27,10,00,13.80
2018,11,27,10,01,13.90
2018,11,27,10,02,13.90
2018,11,27,10,03,13.90
2018,11,27,10,04,13.90
2018,11,27,10,05,13.90
2018,11,27,10,06,13.90
2018,11,27,10,07,13.90
2018,11,27,10,08,13.90
2018,11,27,10,09,13.90
2018,11,27,10,10,13.90
2018,11,27,10,11,13.90
2018,11,27,10,12,13.90
2018,11,27,10,13,13.90
2018,11,27,10,14,13.90
2018,11,27,10,15,13.90
2018,11,27,10,16,13.90
2018,11,27,10,17,14.00
2018,11,27,10,18,14.00
2018,11,27,10,19,14.00
2018,11,27,10,20,14.10
2018,11,27,10,21,14.10
2018,11,27,10,22,14.10
2018,11,27,10,23,14.10
2018,11,27,10,24,14.10
2018,11,27,10,25,14.10
2018,11,27,10,26,14.10
2018,11,27,10,27,14.10
2018,11,27,10,28,14.20
2018,11,27,10,29,14.20
2018,11,27,10,30,14.20
2018,11,27,10,31,14.20
2018,11,27,10,32,14.20
2018,11,27,10,33,14.30
2018,11,27,10,34,14.30
2018,11,27,10,35,14.40
2018,11,27,10,36,14.40
2018,11,27,10,37,14.40
2018,11,27,10,38,14.40
2018,11,27,10,39,14.40
2018,11,27,10,40,14.30
2018,11,27,10,41,14.30
2018,11,27,10,42,14.30
2018,11,27,10,43,14.30
2018,11,27,10,44,14.30
2018,11,27,10,45,14.40
2018,11,27,10,46,14.40
2018,11,27,10,47,14.40
2018,11,27,10,48,14.40
2018,11,27,10,49,14.40
2018,11,27,10,50,14.40
2018,11,27,10,51,14.40
2018,11,27,10,52,14.50
2018,11,27,10,53,14.50
2018,11,27,10,54,14.50
2018,11,27,10,55,14.50
2018,11,27,10,56,14.50
2018,11,27,10,57,14.60
2018,11,27,10,58,14.60
2018,11,27,10,59,14.60
2018,11,27,11,00,14.60
2018,11,27,11,01,14.60
2018,11,27,11,02,14.60
2018,11,27,11,03,14.60
2018,11,27,11,04,14.60
2018,11,27,11,05,14.60
2018,11,27,11,06,14.60
2018,11,27,11,07,14.60
2018,11,27,11,08,14.60
2018,11,27,11,09,14.60
2018,11,27,11,10,14.60
2018,11,27,11,11,14.60
2018,11,27,11,12,14.70
2018,11,27,11,13,14.70
2018,11,27,11,14,14.70
2018,11,27,11,15,14.70
2018,11,27,11,16,14.70
2018,11,27,11,17,14.70
2018,11,27,11,18,14.70
2018,11,27,11,19,14.70
2018,11,27,11,20,14.70
2018,11,27,11,21,14.70
2018,11,27,11,22,14.70
2018,11,27,11,23,14.70
2018,11,27,11,24,14.80
2018,11,27,11,25,14.80
2018,11,27,11,26,14.80
2018,11,27,11,27,14.80
2018,11,27,11,28,14.80
2018,11,27,11,29,14.80
2018,11,27,11,30,14.70
2018,11,27,11,31,14.70
2018,11,27,11,32,14.70
2018,11,27,11,33,14.70
2018,11,27,11,34,14.70
2018,11,27,11,35,14.70
2018,11,27,11,36,14.80
2018,11,27,11,37,14.80
2018,11,27,11,38,14.80
2018,11,27,11,39,14.70
2018,11,27,11,40,14.80
2018,11,27,11,41,14.80
2018,11,27,11,42,14.80
2018,11,27,11,43,14.70
2018,11,27,11,44,14.70
2018,11,27,11,45,14.70
2018,11,27,11,46,14.80
2018,11,27,11,47,14.80
2018,11,27,11,48,14.80
2018,11,27,11,49,14.80
2018,11,27,11,50,14.80
2018,11,27,11,51,14.80
2018,11,27,11,52,14.80
2018,11,27,11,53,14.80
2018,11,27,11,54,14.80
2018,11,27,11,55,14.80
2018,11,27,11,56,14.80
2018,11,27,11,57,14.80
2018,11,27,11,58,14.80
2018,11,27,11,59,14.80
2018,11,27,12,00,14.80
2018,11,27,12,01,14.80
2018,11,27,12,02,14.80
2018,11,27,12,03,14.80
2018,11,27,12,04,14.80
2018,11,27,12,05,14.80
2018,11,27,12,06,14.80
2018,11,27,12,07,14.90
2018,11,27,12,08,14.90
2018,11,27,12,09,14.90
2018,11,27,12,10,14.90
2018,11,27,12,11,14.90
2018,11,27,12,12,14.90
2018,11,27,12,13,14.90
2018,11,27,12,14,14.90
2018,11,27,12,15,14.90
2018,11,27,12,16,14.90
2018,11,27,12,17,14.90
2018,11,27,12,18,14.90
2018,11,27,12,19,14.90
2018,11,27,12,20,14.80
2018,11,27,12,21,14.80
2018,11,27,12,22,14.80
2018,11,27,12,23,14.80
2018,11,27,12,24,14.90
2018,11,27,12,25,14.90
2018,11,27,12,26,14.90
2018,11,27,12,27,15.00
2018,11,27,12,28,15.00
2018,11,27,12,29,15.10
2018,11,27,12,30,15.10
2018,11,27,12,31,15.10
2018,11,27,12,32,15.10
2018,11,27,12,33,15.10
2018,11,27,12,34,15.10
2018,11,27,12,35,15.00
2018,11,27,12,36,15.00
2018,11,27,12,37,15.00
2018,11,27,12,38,15.00
2018,11,27,12,39,15.00
2018,11,27,12,40,15.00
2018,11,27,12,41,15.00
2018,11,27,12,42,15.00
2018,11,27,12,43,15.00
2018,11,27,12,44,15.10
2018,11,27,12,45,15.10
2018,11,27,12,46,15.10
2018,11,27,12,47,15.10
2018,11,27,12,48,15.10
2018,11,27,12,49,15.10
2018,11,27,12,50,15.10
2018,11,27,12,51,15.10
2018,11,27,12,52,15.10
2018,11,27,12,53,15.10
2018,11,27,12,54,15.10
2018,11,27,12,55,15.20
2018,11,27,12,56,15.20
2018,11,27,12,57,15.20
2018,11,27,12,58,15.30
2018,11,27,12,59,15.30
2018,11,27,13,00,15.40
2018,11,27,13,01,15.50
2018,11,27,13,02,15.50
2018,11,27,13,03,15.60
2018,11,27,13,04,15.60
2018,11,27,13,05,15.60
2018,11,27,13,06,15.60
2018,11,27,13,07,15.60
2018,11,27,13,08,15.60
2018,11,27,13,09,15.60
2018,11,27,13,10,15.60
2018,11,27,13,11,15.60
2018,11,27,13,12,15.60
2018,11,27,13,13,15.60
2018,11,27,13,14,15.70
2018,11,27,13,15,15.70
2018,11,27,13,16,15.70
2018,11,27,13,17,15.70
2018,11,27,13,18,15.70
2018,11,27,13,19,15.60
2018,11,27,13,20,15.60
2018,11,27,13,21,15.60
2018,11,27,13,22,15.60
2018,11,27,13,23,15.60
2018,11,27,13,24,15.50
2018,11,27,13,25,15.40
2018,11,27,13,26,15.40
2018,11,27,13,27,15.30
2018,11,27,13,28,15.30
2018,11,27,13,29,15.30
2018,11,27,13,30,15.20
2018,11,27,13,31,15.20
2018,11,27,13,32,15.20
2018,11,27,13,33,15.10
2018,11,27,13,34,15.10
2018,11,27,13,35,15.00
2018,11,27,13,36,15.00
2018,11,27,13,37,14.90
2018,11,27,13,38,14.70
2018,11,27,13,39,14.50
2018,11,27,13,40,14.30
2018,11,27,13,41,14.00
2018,11,27,13,42,13.80
2018,11,27,13,43,13.60
2018,11,27,13,44,13.40
2018,11,27,13,45,13.20
2018,11,27,13,46,13.10
2018,11,27,13,47,13.00
2018,11,27,13,48,12.90
2018,11,27,13,49,12.80
2018,11,27,13,50,12.80
2018,11,27,13,51,12.70
2018,11,27,13,52,12.70
2018,11,27,13,53,12.60
2018,11,27,13,54,12.60
2018,11,27,13,55,12.60
2018,11,27,13,56,12.60
2018,11,27,13,57,12.60
2018,11,27,13,58,12.60
2018,11,27,13,59,12.60
2018,11,27,14,00,12.60
2018,11,27,14,01,12.60
2018,11,27,14,02,12.60
2018,11,27,14,03,12.60
2018,11,27,14,04,12.70
2018,11,27,14,05,12.70
2018,11,27,14,06,12.70
2018,11,27,14,07,12.70
2018,11,27,14,08,12.70
2018,11,27,14,09,12.70
2018,11,27,14,10,12.70
2018,11,27,14,11,12.80
2018,11,27,14,12,12.80
2018,11,27,14,13,12.80
2018,11,27,14,14,12.90
2018,11,27,14,15,12.90
2018,11,27,14,16,12.90
2018,11,27,14,17,12.90
2018,11,27,14,18,13.00
2018,11,27,14,19,13.00
2018,11,27,14,20,13.10
2018,11,27,14,21,13.10
2018,11,27,14,22,13.10
2018,11,27,14,23,13.10
2018,11,27,14,24,13.10
2018,11,27,14,25,13.10
2018,11,27,14,26,13.10
2018,11,27,14,27,13.10
2018,11,27,14,28,13.10
2018,11,27,14,29,13.10
2018,11,27,14,30,13.10
2018,11,27,14,31,13.10
2018,11,27,14,32,13.10
2018,11,27,14,33,13.10
2018,11,27,14,34,13.10
2018,11,27,14,35,13.10
2018,11,27,14,36,13.00
2018,11,27,14,37,13.00
2018,11,27,14,38,13.00
2018,11,27,14,39,13.00
2018,11,27,14,40,13.00
2018,11,27,14,41,13.00
2018,11,27,14,42,12.90
2018,11,27,14,43,12.90
2018,11,27,14,44,12.90
2018,11,27,14,45,12.90
2018,11,27,14,46,12.90
2018,11,27,14,47,12.90
2018,11,27,14,48,12.90
2018,11,27,14,49,12.90
2018,11,27,14,50,12.90
2018,11,27,14,51,12.80
2018,11,27,14,52,12.80
2018,11,27,14,53,12.80
2018,11,27,14,54,12.80
2018,11,27,14,55,12.80
2018,11,27,14,56,12.90
2018,11,27,14,57,12.90
2018,11,27,14,58,12.90
2018,11,27,14,59,12.90
2018,11,27,15,00,12.90
2018,11,27,15,01,12.90
2018,11,27,15,02,12.90
2018,11,27,15,03,12.90
2018,11,27,15,04,12.90
2018,11,27,15,05,12.90
2018,11,27,15,06,12.80
2018,11,27,15,07,12.80
2018,11,27,15,08,12.80
2018,11,27,15,09,12.80
2018,11,27,15,10,12.80
2018,11,27,15,11,12.80
2018,11,27,15,12,12.70
2018,11,27,15,13,12.70
2018,11,27,15,14,12.70
2018,11,27,15,15,12.70
2018,11,27,15,16,12.70
2018,11,27,15,17,12.70
2018,11,27,15,18,12.70
2018,11,27,15,19,12.70
2018,11,27,15,20,12.70
2018,11,27,15,21,12.70
2018,11,27,15,22,12.70
2018,11,27,15,23,12.70
2018,11,27,15,24,12.70
2018,11,27,15,25,12.70
2018,11,27,15,26,12.70
2018,11,27,15,27,12.70
2018,11,27,15,28,12.70
2018,11,27,15,29,12.70
2018,11,27,15,30,12.80
2018,11,27,15,31,12.80
2018,11,27,15,32,12.80
2018,11,27,15,33,12.80
2018,11,27,15,34,12.80
2018,11,27,15,35,12.80
2018,11,27,15,36,12.80
2018,11,27,15,37,12.80
2018,11,27,15,38,12.80
2018,11,27,15,39,12.80
2018,11,27,15,40,12.80
2018,11,27,15,41,12.80
2018,11,27,15,42,12.70
2018,11,27,15,43,12.70
2018,11,27,15,44,12.70
2018,11,27,15,45,12.70
2018,11,27,15,46,12.70
2018,11,27,15,47,12.70
2018,11,27,15,48,12.70
2018,11,27,15,49,12.60
2018,11,27,15,50,12.60
2018,11,27,15,51,12.60
2018,11,27,15,52,12.60
2018,11,27,15,53,12.50
2018,11,27,15,54,12.50
2018,11,27,15,55,12.50
2018,11,27,15,56,12.40
2018,11,27,15,57,12.40
2018,11,27,15,58,12.30
2018,11,27,15,59,12.30
2018,11,27,16,00,12.30
2018,11,27,16,01,12.20
2018,11,27,16,02,12.20
2018,11,27,16,03,12.20
2018,11,27,16,04,12.10
2018,11,27,16,05,12.10
2018,11,27,16,06,12.10
2018,11,27,16,07,12.10
2018,11,27,16,08,12.10
2018,11,27,16,09,12.10
2018,11,27,16,10,12.00
2018,11,27,16,11,12.00
2018,11,27,16,12,11.90
2018,11,27,16,13,11.90
2018,11,27,16,14,11.90
2018,11,27,16,15,11.80
2018,11,27,16,16,11.70
2018,11,27,16,17,11.60
2018,11,27,16,18,11.50
2018,11,27,16,19,11.50
2018,11,27,16,20,11.40
2018,11,27,16,21,11.20
2018,11,27,16,22,11.10
2018,11,27,16,23,11.00
2018,11,27,16,24,10.90
2018,11,27,16,25,10.90
2018,11,27,16,26,10.80
2018,11,27,16,27,10.80
2018,11,27,16,28,10.70
2018,11,27,16,29,10.60
2018,11,27,16,30,10.60
2018,11,27,16,31,10.50
2018,11,27,16,32,10.40
2018,11,27,16,33,10.30
2018,11,27,16,34,10.30
2018,11,27,16,35,10.30
2018,11,27,16,36,10.30
2018,11,27,16,37,10.20
2018,11,27,16,38,10.20
2018,11,27,16,39,10.20
2018,11,27,16,40,10.10
2018,11,27,16,41,10.10
2018,11,27,16,42,10.00
2018,11,27,16,43,10.00
2018,11,27,16,44,9.90
2018,11,27,16,45,9.90
2018,11,27,16,46,9.80
2018,11,27,16,47,9.70
2018,11,27,16,48,9.70
2018,11,27,16,49,9.60
2018,11,27,16,50,9.60
2018,11,27,16,51,9.60
2018,11,27,16,52,9.60
2018,11,27,16,53,9.50
2018,11,27,16,54,9.50
2018,11,27,16,55,9.50
2018,11,27,16,56,9.50
2018,11,27,16,57,9.40
2018,11,27,16,58,9.40
2018,11,27,16,59,9.40
2018,11,27,17,00,9.40
2018,11,27,17,01,9.40
2018,11,27,17,02,9.30
2018,11,27,17,03,9.30
2018,11,27,17,04,9.30
2018,11,27,17,05,9.30
2018,11,27,17,06,9.30
2018,11,27,17,07,9.20
2018,11,27,17,08,9.20
2018,11,27,17,09,9.20
2018,11,27,17,10,9.20
2018,11,27,17,11,9.20
2018,11,27,17,12,9.20
2018,11,27,17,13,9.20
2018,11,27,17,14,9.20
2018,11,27,17,15,9.20
2018,11,27,17,16,9.20
2018,11,27,17,17,9.20
2018,11,27,17,18,9.20
2018,11,27,17,19,9.20
2018,11,27,17,20,9.20
2018,11,27,17,21,9.20
2018,11,27,17,22,9.20
2018,11,27,17,23,9.20
2018,11,27,17,24,9.10